Terug naar catalogus

STARLINK-5592

ActiefCommunicatieVLEO
NORAD 55741·PAYLOAD·🇺🇸 United States

Gelanceerd Mar 3, 2023 vanaf Vandenberg Space Force Base

Loading…

Volgende Passages (komende 24 uur)

TLE

VersSource: CelesTrak SupGP

Epoch: Sep 15, 2026, 01:45 UTC

1 55741C 23028A   26258.07340278  .00631480  00000+0  52190-1 0  2588
2 55741  69.9998 127.0711 0003151 270.9813 142.7919 14.98549786    18

Volg STARLINK-5592 in realtime met AllMySat

Download on the App Store